Regional Weather Roundup
Issued by NWS Cleveland, OH

Home | Current Version | Previous Version | Graphics & Text | Print | Product List | Glossary On
Versions: 1 2 3 4 5 6 7 8 9 10 11 12 13 14 15 16 17 18 19 20 21 22 23 24 25 26 27 28 29 30 31 32 33 34 35 36 37 38 39 40 41 42 43 44 45 46 47 48 49 50
000
ASUS41 KCLE 190010
RWRCLE
OHIO REGIONAL WEATHER ROUNDUP
NATIONAL WEATHER SERVICE WILMINGTON, OH
800 PM EDT FRI AUG 18 2017

NOTE: "FAIR" INDICATES FEW OR NO CLOUDS BELOW 12,000 FEET WITH NO
SIGNIFICANT WEATHER AND/OR OBSTRUCTIONS TO VISIBILITY.

OHZ001>008-015>018-024>027-034-035-043-044-190100-
   NORTHWEST OHIO

CITY           SKY/WX    TMP DP  RH WIND       PRES   REMARKS
DEFIANCE       FAIR      76  61  59 VRB3      29.86R
FINDLAY        FAIR      76  62  62 W9        29.85R
TOLEDO EXPRESS FAIR      75  64  68 W7        29.84S
TOLEDO EXEC    FAIR      76  62  62 W10       29.85R
LIMA           FAIR      75  64  68 W9        29.88R
$$

OHZ009>014-019>023-028>033-038-089-190100-
   NORTHEAST OHIO

CITY           SKY/WX    TMP DP  RH WIND       PRES   REMARKS
CLE-HOPKINS    FAIR      79  62  56 W13       29.86R
CLE-LAKEFRONT  MOCLDY    75  67  76 W10       29.83R
CUY CO. ARPT   NOT AVBL
LORAIN-ELYRIA  MOCLDY    74  58  57 W5        29.85R
ASHTABULA      FAIR      73  63  70 W8        29.84S
AKRON-CANTON   NOT AVBL
WOOSTER        FAIR      74  62  66 W6        29.87R
MANSFIELD      FAIR      75  62  64 W6        29.88R
YOUNGSTOWN     NOT AVBL
$$

OHZ042-051>053-060>062-070>072-077>081-190100-
  SOUTHWEST OHIO

CITY           SKY/WX    TMP DP  RH WIND       PRES   REMARKS
CINC-COVINGTON FAIR      79  65  62 W6        29.92R
CINC-LUNKEN    FAIR      80  64  58 W9        29.91R
HAMILTON       FAIR      80  65  59 W7        29.91R
DAYTON         FAIR      76  63  64 SW9       29.91R
WRIGHT-PAT AFB PTCLDY    79  63  57 SW9       29.89R
DAYTON GENERAL FAIR      79  63  57 SW7       29.91R
WILMINGTON     FAIR      78  64  61 W9        29.91R
$$

OHZ036-037-039>041-045>050-054>059-063>069-073>076-082>088-190100-
  CENTRAL AND SOUTHEAST OHIO

CITY           SKY/WX    TMP DP  RH WIND       PRES   REMARKS
COLUMBUS       FAIR      81  64  56 W13       29.87R
OSU AIRPORT    FAIR      78  65  63 W9        29.88R
BOLTON FIELD   FAIR      77  66  70 SW5       29.89R
RICKENBACK AFB FAIR      78  66  66 W7        29.88S
NEWARK         FAIR      77  64  64 W5        29.87R
MARION         FAIR      76  62  62 W6        29.88R
LANCASTER      FAIR      76  66  71 W5        29.89R
ZANESVILLE     FAIR      78  64  61 W7        29.88R
NEW PHILLY     FAIR      78  66  66 W5        29.87R
$$




USA.gov is the U.S. government's official web portal to all federal, state and local government web resources and services.